TimeEST,TemperatureF,Dew PointF,Humidity,Sea Level PressureIn,VisibilityMPH,Wind Direction,Wind SpeedMPH,Gust SpeedMPH,PrecipitationIn,Events,Conditions,WindDirDegrees,DateUTC
12:15 AM,44.6,42.8,93,29.76,9.0,SE,12.7,19.6,N/A,,Overcast,130,2012-03-03 05:15:00
12:35 AM,44.6,42.8,93,29.75,10.0,SSE,5.8,-,N/A,,Overcast,160,2012-03-03 05:35:00
12:55 AM,46.4,42.8,87,29.73,10.0,SE,11.5,18.4,N/A,,Overcast,130,2012-03-03 05:55:00
1:15 AM,46.4,44.6,93,29.70,6.0,SSE,10.4,-,N/A,,Overcast,150,2012-03-03 06:15:00
1:35 AM,46.4,46.4,100,29.70,10.0,South,8.1,18.4,N/A,,Overcast,170,2012-03-03 06:35:00
1:55 AM,48.2,46.4,93,29.68,7.0,SE,12.7,20.7,N/A,,Overcast,140,2012-03-03 06:55:00
2:15 AM,48.2,46.4,93,29.69,5.0,SSE,9.2,-,0.04,,Overcast,160,2012-03-03 07:15:00
2:35 AM,48.2,46.4,93,29.64,9.0,SSE,12.7,19.6,0.13,,Overcast,150,2012-03-03 07:35:00
2:55 AM,48.2,46.4,93,29.58,10.0,SSE,17.3,23.0,0.19,,Overcast,150,2012-03-03 07:55:00
3:15 AM,48.2,48.2,100,29.57,10.0,SSE,17.3,21.9,N/A,,Overcast,160,2012-03-03 08:15:00
3:35 AM,48.2,48.2,100,29.59,4.0,SSE,15.0,21.9,N/A,,Overcast,160,2012-03-03 08:35:00
3:55 AM,50.0,48.2,94,29.57,8.0,SSE,10.4,19.6,N/A,,Overcast,150,2012-03-03 08:55:00
4:15 AM,51.8,50.0,94,29.57,7.0,South,9.2,16.1,N/A,,Overcast,180,2012-03-03 09:15:00
4:35 AM,51.8,50.0,94,29.58,5.0,South,10.4,21.9,N/A,,Overcast,180,2012-03-03 09:35:00
4:55 AM,51.8,50.0,94,29.55,1.2,South,4.6,-,N/A,,Overcast,180,2012-03-03 09:55:00
5:15 AM,51.8,48.2,88,29.52,0.5,SSE,5.8,-,N/A,,Overcast,160,2012-03-03 10:15:00
5:35 AM,51.8,50.0,94,29.51,0.8,South,4.6,-,N/A,,Overcast,170,2012-03-03 10:35:00
5:55 AM,51.8,50.0,94,29.52,1.8,South,8.1,-,N/A,,Overcast,180,2012-03-03 10:55:00
6:15 AM,51.8,50.0,94,29.52,6.0,SSW,4.6,-,N/A,,Overcast,210,2012-03-03 11:15:00
6:35 AM,51.8,50.0,94,29.52,7.0,SW,3.5,-,N/A,,Overcast,220,2012-03-03 11:35:00
7:15 AM,51.8,51.8,100,29.49,5.0,Calm,Calm,-,N/A,,Overcast,0,2012-03-03 12:15:00
7:35 AM,51.8,51.8,100,29.50,5.0,SW,4.6,-,N/A,,Overcast,230,2012-03-03 12:35:00
7:55 AM,53.6,51.8,94,29.51,5.0,SW,5.8,-,N/A,,Overcast,230,2012-03-03 12:55:00
8:15 AM,53.6,51.8,94,29.51,1.5,SW,8.1,-,N/A,,Overcast,220,2012-03-03 13:15:00
8:35 AM,53.6,53.6,100,29.52,1.0,SW,6.9,-,N/A,,Overcast,230,2012-03-03 13:35:00
8:55 AM,53.6,53.6,100,29.53,2.5,WSW,12.7,-,N/A,,Overcast,250,2012-03-03 13:55:00
9:15 AM,53.6,53.6,100,29.52,4.0,WSW,9.2,-,N/A,,Overcast,250,2012-03-03 14:15:00
9:35 AM,53.6,53.6,100,29.52,8.0,WSW,11.5,18.4,N/A,,Overcast,240,2012-03-03 14:35:00
9:55 AM,53.6,51.8,94,29.53,10.0,West,13.8,21.9,N/A,,Overcast,260,2012-03-03 14:55:00
10:15 AM,53.6,51.8,94,29.53,10.0,West,11.5,20.7,N/A,,Overcast,260,2012-03-03 15:15:00
10:35 AM,51.8,50.0,94,29.53,10.0,WSW,10.4,16.1,N/A,,Overcast,250,2012-03-03 15:35:00
10:55 AM,51.8,50.0,94,29.53,10.0,West,15.0,-,N/A,,Overcast,270,2012-03-03 15:55:00
11:15 AM,51.8,48.2,88,29.53,10.0,West,15.0,23.0,N/A,,Overcast,280,2012-03-03 16:15:00
11:35 AM,51.8,48.2,88,29.53,10.0,West,10.4,-,N/A,,Overcast,270,2012-03-03 16:35:00
11:55 AM,51.8,46.4,82,29.52,10.0,West,12.7,19.6,N/A,,Mostly Cloudy,280,2012-03-03 16:55:00
12:15 PM,51.8,44.6,76,29.52,10.0,West,13.8,23.0,N/A,,Scattered Clouds,270,2012-03-03 17:15:00
12:35 PM,51.8,44.6,76,29.51,10.0,West,13.8,18.4,N/A,,Scattered Clouds,270,2012-03-03 17:35:00
12:55 PM,53.6,44.6,72,29.51,10.0,West,11.5,19.6,N/A,,Partly Cloudy,270,2012-03-03 17:55:00
1:15 PM,53.6,39.2,58,29.50,10.0,West,12.7,17.3,N/A,,Clear,270,2012-03-03 18:15:00
1:35 PM,53.6,39.2,58,29.50,10.0,West,17.3,26.5,N/A,,Clear,270,2012-03-03 18:35:00
1:55 PM,53.6,39.2,58,29.51,10.0,West,17.3,25.3,N/A,,Clear,270,2012-03-03 18:55:00
2:15 PM,53.6,37.4,54,29.52,10.0,West,17.3,20.7,N/A,,Clear,270,2012-03-03 19:15:00
2:35 PM,53.6,37.4,54,29.52,10.0,West,19.6,23.0,N/A,,Clear,260,2012-03-03 19:35:00
2:55 PM,55.4,32.0,41,29.51,10.0,West,15.0,25.3,N/A,,Clear,270,2012-03-03 19:55:00
3:15 PM,55.4,33.8,44,29.52,10.0,West,15.0,23.0,N/A,,Clear,260,2012-03-03 20:15:00
3:35 PM,55.4,28.4,36,29.53,10.0,WSW,13.8,24.2,N/A,,Clear,250,2012-03-03 20:35:00
3:55 PM,55.4,33.8,44,29.53,10.0,West,18.4,24.2,N/A,,Clear,280,2012-03-03 20:55:00
4:15 PM,55.4,30.2,38,29.53,10.0,West,15.0,25.3,N/A,,Clear,260,2012-03-03 21:15:00
4:35 PM,55.4,30.2,38,29.53,10.0,WSW,19.6,29.9,N/A,,Clear,240,2012-03-03 21:35:00
4:55 PM,55.4,26.6,33,29.54,10.0,West,15.0,25.3,N/A,,Clear,260,2012-03-03 21:55:00
5:15 PM,53.6,26.6,35,29.56,10.0,West,10.4,21.9,N/A,,Clear,270,2012-03-03 22:15:00
5:35 PM,53.6,26.6,35,29.57,10.0,WSW,8.1,18.4,N/A,,Clear,250,2012-03-03 22:35:00
5:55 PM,53.6,26.6,35,29.59,10.0,WSW,11.5,-,N/A,,Clear,240,2012-03-03 22:55:00
6:15 PM,53.6,26.6,35,29.60,10.0,WSW,9.2,-,N/A,,Clear,240,2012-03-03 23:15:00
6:35 PM,51.8,26.6,38,29.61,10.0,WSW,9.2,-,N/A,,Clear,240,2012-03-03 23:35:00
6:55 PM,51.8,26.6,38,29.62,10.0,WSW,8.1,-,N/A,,Clear,240,2012-03-03 23:55:00
7:15 PM,51.8,28.4,41,29.62,10.0,SW,6.9,-,N/A,,Clear,230,2012-03-04 00:15:00
7:35 PM,50.0,28.4,43,29.62,10.0,WSW,5.8,-,N/A,,Clear,250,2012-03-04 00:35:00
7:55 PM,48.2,28.4,46,29.62,10.0,WSW,6.9,-,N/A,,Clear,240,2012-03-04 00:55:00
8:15 PM,48.2,28.4,46,29.65,10.0,SW,5.8,-,N/A,,Clear,220,2012-03-04 01:15:00
8:35 PM,48.2,26.6,43,29.64,10.0,WSW,5.8,-,N/A,,Clear,250,2012-03-04 01:35:00
8:55 PM,46.4,24.8,43,29.65,10.0,WNW,9.2,-,N/A,,Clear,290,2012-03-04 01:55:00
9:15 PM,48.2,21.2,34,29.66,10.0,WNW,11.5,-,N/A,,Clear,300,2012-03-04 02:15:00
9:35 PM,48.2,21.2,34,29.66,10.0,WNW,12.7,20.7,N/A,,Clear,300,2012-03-04 02:35:00
9:55 PM,48.2,21.2,34,29.65,10.0,WNW,18.4,23.0,N/A,,Clear,300,2012-03-04 02:55:00
10:15 PM,48.2,21.2,34,29.65,10.0,NW,17.3,21.9,N/A,,Clear,310,2012-03-04 03:15:00
10:35 PM,46.4,23.0,40,29.66,10.0,NW,15.0,20.7,N/A,,Clear,310,2012-03-04 03:35:00
10:55 PM,46.4,23.0,40,29.66,10.0,WNW,11.5,17.3,N/A,,Clear,300,2012-03-04 03:55:00
11:15 PM,46.4,23.0,40,29.67,10.0,WNW,12.7,18.4,N/A,,Clear,300,2012-03-04 04:15:00
11:35 PM,44.6,23.0,43,29.68,10.0,West,4.6,-,N/A,,Clear,260,2012-03-04 04:35:00
11:55 PM,44.6,21.2,39,29.70,10.0,SW,5.8,-,N/A,,Clear,220,2012-03-04 04:55:00